When you browse on this site, cookies collect data to enhance your experience and personalize the content and advertising you see.
Visit our Privacy Policy to learn more. By continuing to use the site, you agree to this use of cookies and data.
  • In Sweden
  • List of Countries
  • For 7 days
  • Water Temperature
  • Weather Map
  • Weather Widgets
  • user-avatar
    Login

    Hourly Weather Tooele

    Today, 6 December, Friday

    Time Temperature Precipitation Wind Pressure Humidity
    00:00 0°C° 0 mm 1 mps 619 mmHg 94%
    01:00 0°C° 0 mm 1 mps 619 mmHg 94%
    02:00 0°C° 0 mm 1 mps 618 mmHg 93%
    03:00 0°C° 0 mm 1 mps 618 mmHg 93%
    04:00 0°C° 0 mm 1 mps 619 mmHg 92%
    05:00 0°C° 0 mm 1 mps 619 mmHg 92%
    06:00 -1°C° 0 mm 1 mps 618 mmHg 91%
    07:00 -1°C° 0 mm 1 mps 618 mmHg 91%
    08:00 -1°C° 0 mm 1 mps 618 mmHg 90%
    09:00 0°C° 0 mm 1 mps 619 mmHg 91%
    10:00 +1°C° 0 mm 1 mps 619 mmHg 92%
    11:00 +2°C° 0 mm 1 mps 620 mmHg 92%
    12:00 +3°C° 0 mm 1 mps 619 mmHg 92%
    13:00 +3°C° 0 mm 1 mps 619 mmHg 91%
    14:00 +3°C° 0 mm 1 mps 618 mmHg 90%
    15:00 +2°C° 0 mm 1 mps 618 mmHg 87%
    16:00 +2°C° 0 mm 1 mps 617 mmHg 85%
    17:00 +1°C° 0 mm 1 mps 617 mmHg 82%
    18:00 -1°C° 0 mm 2 mps 617 mmHg 81%
    19:00 -1°C° 0 mm 2 mps 617 mmHg 80%
    20:00 -1°C° 0 mm 2 mps 617 mmHg 79%
    21:00 -1°C° 0 mm 2 mps 617 mmHg 79%
    22:00 -1°C° 0 mm 3 mps 617 mmHg 79%
    23:00 -1°C° 0 mm 3 mps 617 mmHg 79%

    Tomorrow, 7 December, Saturday

    Time Temperature Precipitation Wind Pressure Humidity
    00:00 -1°C° 0 mm 3 mps 617 mmHg 79%
    01:00 -1°C° 0 mm 3 mps 617 mmHg 79%
    02:00 -2°C° 0 mm 3 mps 617 mmHg 78%
    03:00 -2°C° 0 mm 3 mps 616 mmHg 78%
    04:00 -2°C° 0 mm 3 mps 616 mmHg 77%
    05:00 -2°C° 0 mm 3 mps 616 mmHg 77%
    06:00 -2°C° 0 mm 3 mps 616 mmHg 76%
    07:00 -2°C° 0 mm 3 mps 616 mmHg 76%
    08:00 -2°C° 0 mm 3 mps 617 mmHg 75%
    09:00 -1°C° 0 mm 3 mps 617 mmHg 77%
    10:00 0°C° 0 mm 3 mps 617 mmHg 78%
    11:00 +1°C° 0 mm 3 mps 617 mmHg 79%
    12:00 +2°C° 0 mm 3 mps 617 mmHg 80%
    13:00 +2°C° 0 mm 3 mps 616 mmHg 80%
    14:00 +3°C° 0 mm 4 mps 616 mmHg 80%
    15:00 +2°C° 0 mm 3 mps 615 mmHg 82%
    16:00 +1°C° 0 mm 3 mps 615 mmHg 83%
    17:00 +1°C° 0 mm 3 mps 614 mmHg 84%
    18:00 +1°C° 0 mm 3 mps 614 mmHg 85%
    19:00 +1°C° 0 mm 3 mps 614 mmHg 86%
    20:00 +1°C° 0 mm 3 mps 614 mmHg 87%
    21:00 +1°C° 0 mm 3 mps 614 mmHg 87%
    22:00 +1°C° 0 mm 3 mps 614 mmHg 87%
    23:00 +1°C° 0 mm 3 mps 613 mmHg 88%

    Day after tomorrow, 8 December, Sunday

    Time Temperature Precipitation Wind Pressure Humidity
    00:00 +1°C° 0.1 mm 3 mps 613 mmHg 89%
    01:00 0°C° 0.1 mm 4 mps 612 mmHg 91%
    02:00 0°C° 0.1 mm 4 mps 611 mmHg 92%
    03:00 +1°C° 0.6 mm 3 mps 611 mmHg 93%
    04:00 +1°C° 0.6 mm 3 mps 611 mmHg 94%
    05:00 +2°C° 0.6 mm 2 mps 611 mmHg 96%
    06:00 +2°C° 0.2 mm 2 mps 611 mmHg 94%
    07:00 +2°C° 0.2 mm 1 mps 611 mmHg 93%
    08:00 +2°C° 0.2 mm 1 mps 611 mmHg 92%
    09:00 +2°C° 0.2 mm 1 mps 611 mmHg 93%
    10:00 +2°C° 0.2 mm 1 mps 611 mmHg 94%
    11:00 +2°C° 0.2 mm 1 mps 612 mmHg 95%
    12:00 +2°C° 0.3 mm 1 mps 611 mmHg 95%
    13:00 +2°C° 0.3 mm 1 mps 611 mmHg 95%
    14:00 +2°C° 0.3 mm 1 mps 611 mmHg 94%
    15:00 +2°C° 0.4 mm 1 mps 611 mmHg 95%
    16:00 +2°C° 0.4 mm 1 mps 612 mmHg 95%
    17:00 +1°C° 0.4 mm 1 mps 612 mmHg 95%
    18:00 +1°C° 0.2 mm 1 mps 612 mmHg 94%
    19:00 +1°C° 0.2 mm 1 mps 612 mmHg 94%
    20:00 0°C° 0.2 mm 1 mps 613 mmHg 94%
    21:00 +1°C° 0.4 mm 1 mps 613 mmHg 93%
    22:00 -1°C° 0.4 mm 2 mps 613 mmHg 93%
    23:00 -1°C° 0.4 mm 3 mps 614 mmHg 93%

    9 December, Monday

    Time Temperature Precipitation Wind Pressure Humidity
    00:00 -2°C° 0.3 mm 3 mps 614 mmHg 92%
    01:00 -2°C° 0.3 mm 3 mps 614 mmHg 91%
    02:00 -2°C° 0.3 mm 3 mps 614 mmHg 90%
    03:00 -2°C° 0.2 mm 3 mps 614 mmHg 91%
    04:00 -4°C° 0.2 mm 3 mps 615 mmHg 91%
    05:00 -3°C° 0.2 mm 2 mps 615 mmHg 92%
    06:00 -3°C° 0.1 mm 2 mps 615 mmHg 91%
    07:00 -4°C° 0.1 mm 2 mps 615 mmHg 91%
    08:00 -4°C° 0.1 mm 2 mps 616 mmHg 90%
    09:00 -3°C° 0.1 mm 2 mps 616 mmHg 86%
    10:00 -2°C° 0.1 mm 2 mps 616 mmHg 83%
    11:00 -1°C° 0.1 mm 2 mps 617 mmHg 80%
    12:00 -1°C° 0.1 mm 3 mps 617 mmHg 79%
    13:00 -1°C° 0.1 mm 3 mps 616 mmHg 79%
    14:00 -1°C° 0.1 mm 3 mps 616 mmHg 78%
    15:00 -1°C° 0.1 mm 3 mps 616 mmHg 79%
    16:00 -2°C° 0.1 mm 2 mps 616 mmHg 80%
    17:00 -3°C° 0.1 mm 2 mps 616 mmHg 82%
    18:00 -1°C° 0 mm 1 mps 617 mmHg 82%
    19:00 -1°C° 0 mm 1 mps 617 mmHg 82%
    20:00 -2°C° 0 mm 1 mps 617 mmHg 83%
    21:00 -2°C° 0 mm 1 mps 618 mmHg 82%
    22:00 -2°C° 0 mm 1 mps 618 mmHg 82%
    23:00 -3°C° 0 mm 0 mps 618 mmHg 81%

    10 December, Tuesday

    Time Temperature Precipitation Wind Pressure Humidity
    00:00 -2°C° 0 mm 1 mps 618 mmHg 81%
    01:00 -2°C° 0 mm 1 mps 618 mmHg 81%
    02:00 -3°C° 0 mm 1 mps 618 mmHg 81%
    03:00 -3°C° 0 mm 1 mps 618 mmHg 80%
    04:00 -3°C° 0 mm 1 mps 618 mmHg 80%
    05:00 -5°C° 0 mm 2 mps 618 mmHg 79%
    06:00 -5°C° 0 mm 2 mps 619 mmHg 80%
    07:00 -5°C° 0 mm 2 mps 619 mmHg 81%
    08:00 -5°C° 0 mm 2 mps 619 mmHg 81%
    09:00 -4°C° 0 mm 2 mps 619 mmHg 80%
    10:00 -2°C° 0 mm 2 mps 619 mmHg 78%
    11:00 -1°C° 0 mm 2 mps 619 mmHg 77%
    12:00 -1°C° 0 mm 2 mps 619 mmHg 75%
    13:00 +1°C° 0 mm 2 mps 619 mmHg 74%
    14:00 +1°C° 0 mm 2 mps 618 mmHg 73%
    15:00 -1°C° 0 mm 2 mps 618 mmHg 74%
    16:00 -2°C° 0 mm 2 mps 617 mmHg 76%
    17:00 -3°C° 0 mm 2 mps 617 mmHg 78%
    18:00 -3°C° 0 mm 2 mps 617 mmHg 76%
    19:00 -3°C° 0 mm 2 mps 617 mmHg 75%
    20:00 -3°C° 0 mm 2 mps 617 mmHg 74%
    21:00 -3°C° 0 mm 2 mps 617 mmHg 73%
    22:00 -3°C° 0 mm 2 mps 617 mmHg 72%
    23:00 -3°C° 0 mm 2 mps 617 mmHg 71%

    11 December, Wednesday

    Time Temperature Precipitation Wind Pressure Humidity
    00:00 -3°C° 0 mm 2 mps 617 mmHg 70%
    01:00 -3°C° 0 mm 2 mps 617 mmHg 68%
    02:00 -3°C° 0 mm 2 mps 616 mmHg 67%
    03:00 -3°C° 0 mm 2 mps 616 mmHg 65%
    04:00 -3°C° 0 mm 2 mps 616 mmHg 62%
    05:00 -3°C° 0 mm 2 mps 616 mmHg 60%
    06:00 -3°C° 0 mm 2 mps 616 mmHg 59%
    07:00 -3°C° 0 mm 2 mps 615 mmHg 57%
    08:00 -3°C° 0 mm 2 mps 615 mmHg 56%
    09:00 -2°C° 0 mm 2 mps 615 mmHg 55%
    10:00 +1°C° 0 mm 2 mps 615 mmHg 55%
    11:00 +2°C° 0 mm 2 mps 615 mmHg 55%
    12:00 +2°C° 0 mm 2 mps 615 mmHg 56%
    13:00 +3°C° 0 mm 1 mps 614 mmHg 58%
    14:00 +4°C° 0 mm 1 mps 614 mmHg 60%
    15:00 +2°C° 0 mm 1 mps 613 mmHg 60%
    16:00 +1°C° 0 mm 1 mps 613 mmHg 61%
    17:00 -1°C° 0 mm 0 mps 613 mmHg 62%
    18:00 -1°C° 0 mm 0 mps 613 mmHg 63%
    19:00 0°C° 0 mm 1 mps 613 mmHg 64%
    20:00 0°C° 0 mm 1 mps 613 mmHg 65%
    21:00 0°C° 0 mm 1 mps 614 mmHg 68%
    22:00 0°C° 0 mm 1 mps 614 mmHg 71%
    23:00 -1°C° 0 mm 1 mps 614 mmHg 74%
    Show more